This is the latest recevied weather packets stored in our database for station/object KB3UMW-13. If no packets are shown the sender has not sent any weather packets the latest 10 day(s).
| Time | Temp. | Humidity | Pressure | Rain* | Wind** | Luminosity | Snow |
|---|---|---|---|---|---|---|---|
| 1777246198 | 7.22° C | 94% | 1020 hPa | 0 mm | - | 12 W/m² | - |
| 1777245896 | 7.22° C | 93% | 1020.1 hPa | 0 mm | - | 14 W/m² | - |
| 1777245594 | 7.22° C | 93% | 1019.9 hPa | 0 mm | - | 16 W/m² | - |
| 1777245290 | 7.22° C | 92% | 1019.7 hPa | 0 mm | - | 20 W/m² | - |
| 1777244986 | 7.78° C | 93% | 1019.8 hPa | 0 mm | - | 23 W/m² | - |
| 1777244682 | 7.78° C | 92% | 1019.7 hPa | 0 mm | - | 30 W/m² | - |
| 1777244378 | 8.33° C | 91% | 1019.6 hPa | 0 mm | - | 37 W/m² | - |
| 1777244075 | 7.78° C | 91% | 1019.5 hPa | 0 mm | - | 38 W/m² | - |
| 1777243773 | 8.33° C | 92% | 1019.4 hPa | 0 mm | - | 48 W/m² | - |
| 1777243469 | 8.33° C | 91% | 1019.4 hPa | 0 mm | - | 59 W/m² | - |
| 1777243166 | 8.89° C | 90% | 1019.7 hPa | 0 mm | - | 60 W/m² | - |
| 1777242861 | 9.44° C | 90% | 1019.4 hPa | 0 mm | - | 59 W/m² | - |
| 1777242559 | 9.44° C | 90% | 1019.5 hPa | 0 mm | - | 67 W/m² | - |
| 1777242255 | 9.44° C | 89% | 1019.3 hPa | 0 mm | - | 107 W/m² | - |
| 1777241953 | 10° C | 89% | 1019.6 hPa | 0 mm | - | 113 W/m² | - |
| 1777241649 | 10° C | 88% | 1019.4 hPa | 0 mm | - | 98 W/m² | - |
| 1777241346 | 10° C | 89% | 1019.4 hPa | 0 mm | - | 130 W/m² | - |
| 1777241044 | 10.56° C | 88% | 1019.2 hPa | 0 mm | - | 134 W/m² | - |
| 1777240742 | 10.56° C | 89% | 1019.1 hPa | 0 mm | - | 160 W/m² | - |
| 1777240439 | 10.56° C | 87% | 1019.1 hPa | 0 mm | - | 164 W/m² | - |
| 1777240136 | 10.56° C | 88% | 1019.2 hPa | 0 mm | - | 153 W/m² | - |
| 1777239835 | 10° C | 89% | 1019.1 hPa | 0 mm | - | 114 W/m² | - |
| 1777239530 | 10° C | 88% | 1019.2 hPa | 0 mm | - | 109 W/m² | - |
| 1777239227 | 10.56° C | 89% | 1019 hPa | 0 mm | - | 132 W/m² | - |
| 1777238925 | 10.56° C | 86% | 1019 hPa | 0 mm | - | 200 W/m² | - |
* Rain latest hour (hover to see other rain measurements)
** Current wind speed in m/s (hover to see current wind gust speed)